Hourly Weather Klasak

Today, 29 July, Thursday

Time Temperature Precipitation Wind Pressure Humidity
00:00 +19°C° 0 mm 2 mps 743 mmHg 92%
01:00 +18°C° 0 mm 2 mps 744 mmHg 92%
02:00 +18°C° 0 mm 2 mps 743 mmHg 92%
03:00 +17°C° 0 mm 2 mps 743 mmHg 92%
04:00 +17°C° 0 mm 2 mps 743 mmHg 93%
05:00 +18°C° 0 mm 3 mps 743 mmHg 87%
06:00 +19°C° 0 mm 3 mps 744 mmHg 82%
07:00 +20°C° 0 mm 4 mps 744 mmHg 76%
08:00 +22°C° 0 mm 4 mps 744 mmHg 69%
09:00 +23°C° 0 mm 4 mps 744 mmHg 61%
10:00 +26°C° 0 mm 5 mps 744 mmHg 54%
11:00 +26°C° 0 mm 5 mps 744 mmHg 52%
12:00 +26°C° 0 mm 5 mps 743 mmHg 50%
13:00 +26°C° 0 mm 5 mps 743 mmHg 49%
14:00 +27°C° 0 mm 5 mps 743 mmHg 46%
15:00 +27°C° 0 mm 5 mps 743 mmHg 43%
16:00 +27°C° 0 mm 5 mps 743 mmHg 40%
17:00 +26°C° 0 mm 4 mps 743 mmHg 45%
18:00 +25°C° 0 mm 3 mps 743 mmHg 50%
19:00 +24°C° 0 mm 2 mps 743 mmHg 54%
20:00 +23°C° 0 mm 2 mps 743 mmHg 57%
21:00 +21°C° 0 mm 2 mps 743 mmHg 59%
22:00 +20°C° 0 mm 2 mps 743 mmHg 61%
23:00 +19°C° 0 mm 2 mps 743 mmHg 64%

Tomorrow, 30 July, Friday

Time Temperature Precipitation Wind Pressure Humidity
00:00 +18°C° 0 mm 2 mps 743 mmHg 66%
01:00 +18°C° 0 mm 2 mps 743 mmHg 69%
02:00 +17°C° 0 mm 2 mps 743 mmHg 70%
03:00 +17°C° 0 mm 2 mps 743 mmHg 71%
04:00 +16°C° 0 mm 2 mps 743 mmHg 72%
05:00 +18°C° 0 mm 2 mps 743 mmHg 69%
06:00 +19°C° 0 mm 2 mps 743 mmHg 67%
07:00 +20°C° 0 mm 2 mps 743 mmHg 64%
08:00 +21°C° 0 mm 3 mps 743 mmHg 58%
09:00 +24°C° 0 mm 3 mps 743 mmHg 53%
10:00 +25°C° 0 mm 4 mps 743 mmHg 47%
11:00 +26°C° 0 mm 5 mps 742 mmHg 44%
12:00 +27°C° 0 mm 5 mps 742 mmHg 41%
13:00 +28°C° 0 mm 6 mps 742 mmHg 38%
14:00 +29°C° 0 mm 5 mps 741 mmHg 37%
15:00 +29°C° 0 mm 5 mps 741 mmHg 37%
16:00 +29°C° 0 mm 5 mps 741 mmHg 36%
17:00 +27°C° 0 mm 4 mps 741 mmHg 43%
18:00 +26°C° 0 mm 3 mps 741 mmHg 49%
19:00 +24°C° 0 mm 2 mps 741 mmHg 56%
20:00 +23°C° 0 mm 1 mps 741 mmHg 56%
21:00 +22°C° 0 mm 1 mps 741 mmHg 56%
22:00 +19°C° 0 mm 0 mps 741 mmHg 56%
23:00 +19°C° 0 mm 0 mps 741 mmHg 58%

Day after tomorrow, 31 July, Saturday

Time Temperature Precipitation Wind Pressure Humidity
00:00 +20°C° 0 mm 1 mps 741 mmHg 59%
01:00 +20°C° 0 mm 1 mps 740 mmHg 60%
02:00 +20°C° 0 mm 1 mps 740 mmHg 62%
03:00 +20°C° 0 mm 1 mps 740 mmHg 64%
04:00 +19°C° 0 mm 1 mps 740 mmHg 66%
05:00 +20°C° 0 mm 2 mps 740 mmHg 64%
06:00 +21°C° 0 mm 2 mps 740 mmHg 62%
07:00 +24°C° 0 mm 2 mps 740 mmHg 61%
08:00 +25°C° 0 mm 3 mps 740 mmHg 59%
09:00 +25°C° 0 mm 3 mps 740 mmHg 57%
10:00 +26°C° 0 mm 4 mps 740 mmHg 56%
11:00 +26°C° 0 mm 4 mps 740 mmHg 56%
12:00 +26°C° 0 mm 4 mps 740 mmHg 56%
13:00 +26°C° 0 mm 4 mps 740 mmHg 57%
14:00 +26°C° 0 mm 4 mps 740 mmHg 57%
15:00 +26°C° 0 mm 4 mps 740 mmHg 56%
16:00 +26°C° 0 mm 4 mps 740 mmHg 56%
17:00 +25°C° 0 mm 3 mps 740 mmHg 58%
18:00 +25°C° 0 mm 3 mps 740 mmHg 60%
19:00 +24°C° 0 mm 2 mps 740 mmHg 63%
20:00 +23°C° 0 mm 2 mps 740 mmHg 62%
21:00 +21°C° 0 mm 2 mps 740 mmHg 62%
22:00 +19°C° 0 mm 3 mps 741 mmHg 62%
23:00 +19°C° 0 mm 2 mps 741 mmHg 63%

1 August, Sunday

Time Temperature Precipitation Wind Pressure Humidity
00:00 +18°C° 0 mm 2 mps 741 mmHg 63%
01:00 +18°C° 0 mm 1 mps 741 mmHg 64%
02:00 +18°C° 0 mm 1 mps 741 mmHg 66%
03:00 +16°C° 0 mm 1 mps 741 mmHg 67%
04:00 +16°C° 0 mm 1 mps 741 mmHg 69%
05:00 +18°C° 0 mm 1 mps 741 mmHg 66%
06:00 +19°C° 0 mm 1 mps 741 mmHg 62%
07:00 +21°C° 0 mm 1 mps 741 mmHg 59%
08:00 +19°C° 0.3 mm 2 mps 741 mmHg 64%
09:00 +18°C° 0.3 mm 3 mps 741 mmHg 70%
10:00 +18°C° 0.3 mm 4 mps 741 mmHg 75%
11:00 +17°C° 0.7 mm 3 mps 741 mmHg 80%
12:00 +17°C° 0.7 mm 3 mps 741 mmHg 84%
13:00 +16°C° 0.7 mm 3 mps 741 mmHg 88%
14:00 +16°C° 0.2 mm 2 mps 741 mmHg 88%
15:00 +16°C° 0.2 mm 2 mps 741 mmHg 88%
16:00 +16°C° 0.2 mm 2 mps 741 mmHg 88%
17:00 +16°C° 0.2 mm 2 mps 741 mmHg 89%
18:00 +16°C° 0.2 mm 2 mps 741 mmHg 91%
19:00 +16°C° 0.2 mm 2 mps 741 mmHg 92%
20:00 +16°C° 0 mm 2 mps 741 mmHg 93%
21:00 +16°C° 0 mm 2 mps 741 mmHg 93%
22:00 +15°C° 0 mm 2 mps 741 mmHg 94%
23:00 +15°C° 0 mm 2 mps 741 mmHg 94%

2 August, Monday

Time Temperature Precipitation Wind Pressure Humidity
00:00 +15°C° 0 mm 2 mps 741 mmHg 93%
01:00 +15°C° 0 mm 2 mps 741 mmHg 93%
02:00 +15°C° 0 mm 2 mps 741 mmHg 92%
03:00 +15°C° 0 mm 2 mps 741 mmHg 91%
04:00 +15°C° 0 mm 2 mps 741 mmHg 90%
05:00 +16°C° 0 mm 3 mps 741 mmHg 85%
06:00 +17°C° 0 mm 3 mps 741 mmHg 81%
07:00 +18°C° 0 mm 4 mps 742 mmHg 76%
08:00 +19°C° 0.1 mm 4 mps 742 mmHg 70%
09:00 +21°C° 0.1 mm 5 mps 742 mmHg 64%
10:00 +22°C° 0.1 mm 5 mps 742 mmHg 58%
11:00 +23°C° 0.1 mm 6 mps 742 mmHg 53%
12:00 +23°C° 0.1 mm 6 mps 742 mmHg 49%
13:00 +24°C° 0.1 mm 6 mps 742 mmHg 45%
14:00 +24°C° 0 mm 6 mps 742 mmHg 48%
15:00 +23°C° 0 mm 5 mps 743 mmHg 51%
16:00 +22°C° 0 mm 4 mps 743 mmHg 55%
17:00 +21°C° 0.1 mm 4 mps 743 mmHg 60%
18:00 +20°C° 0.1 mm 3 mps 743 mmHg 66%
19:00 +19°C° 0.1 mm 3 mps 743 mmHg 71%
20:00 +18°C° 0 mm 3 mps 743 mmHg 74%
21:00 +17°C° 0 mm 3 mps 744 mmHg 76%
22:00 +16°C° 0 mm 2 mps 744 mmHg 79%
23:00 +16°C° 0 mm 2 mps 744 mmHg 80%

3 August, Tuesday

Time Temperature Precipitation Wind Pressure Humidity
00:00 +14°C° 0 mm 3 mps 745 mmHg 82%
01:00 +13°C° 0 mm 3 mps 745 mmHg 83%
02:00 +13°C° 0 mm 3 mps 745 mmHg 83%
03:00 +14°C° 0 mm 2 mps 745 mmHg 83%
04:00 +13°C° 0 mm 2 mps 745 mmHg 83%
05:00 +14°C° 0 mm 3 mps 746 mmHg 78%
06:00 +16°C° 0 mm 3 mps 746 mmHg 72%
07:00 +17°C° 0 mm 3 mps 746 mmHg 66%
08:00 +19°C° 0 mm 3 mps 746 mmHg 60%
09:00 +20°C° 0 mm 3 mps 746 mmHg 54%
10:00 +22°C° 0 mm 3 mps 746 mmHg 48%
11:00 +22°C° 0 mm 3 mps 746 mmHg 46%
12:00 +24°C° 0 mm 3 mps 746 mmHg 44%
13:00 +25°C° 0 mm 3 mps 746 mmHg 42%
14:00 +25°C° 0 mm 3 mps 746 mmHg 42%
15:00 +25°C° 0 mm 2 mps 745 mmHg 41%
16:00 +25°C° 0 mm 2 mps 745 mmHg 40%
17:00 +24°C° 0 mm 2 mps 745 mmHg 45%
18:00 +23°C° 0 mm 2 mps 745 mmHg 50%
19:00 +22°C° 0 mm 1 mps 745 mmHg 55%
20:00 +20°C° 0 mm 2 mps 745 mmHg 56%
21:00 +19°C° 0 mm 2 mps 745 mmHg 57%
22:00 +18°C° 0 mm 2 mps 745 mmHg 58%
23:00 +18°C° 0 mm 3 mps 745 mmHg 59%
Show more